| time (UTC) | temp F | wind direction | speed knots | gust knots | rain 1hr in | rain 24hr in | rain mn in | humidity % | barometer mb |
| 20260507021421 | 58 | 13 | 2.6 | 7.8 | 0.00 | 0.01 | 0.01 | 84 | 1016.8 |
| 20260507020347 | 58 | 16 | 3.5 | 7.0 | 0.00 | 0.01 | 0.01 | 84 | 1016.4 |
| 20260507015354 | 58 | 12 | 3.5 | 7.0 | 0.00 | 0.01 | 0.01 | 85 | 1016.1 |
| 20260507014351 | 58 | 0 | 2.6 | 7.0 | 0.00 | 0.01 | 0.01 | 85 | 1015.9 |
| 20260507013322 | 58 | 5 | 2.6 | 7.0 | 0.00 | 0.01 | 0.01 | 85 | 1015.7 |
| 20260507012252 | 58 | 41 | 2.6 | 9.6 | 0.00 | 0.01 | 0.01 | 85 | 1015.5 |
| 20260507011242 | 58 | 18 | 3.5 | 9.6 | 0.00 | 0.01 | 0.01 | 85 | 1015.4 |
| 20260507010234 | 58 | 32 | 3.5 | 7.8 | 0.00 | 0.01 | 0.01 | 84 | 1015.4 |
| 20260507005225 | 58 | 26 | 3.5 | 9.6 | 0.00 | 0.01 | 0.01 | 85 | 1015.3 |
| 20260507004205 | 58 | 11 | 3.5 | 9.6 | 0.00 | 0.01 | 0.01 | 85 | 1015.1 |
| 20260507003136 | 58 | 32 | 4.3 | 9.6 | 0.00 | 0.01 | 0.01 | 85 | 1015.0 |
| 20260507002135 | 58 | 13 | 4.3 | 9.6 | 0.00 | 0.01 | 0.01 | 85 | 1014.8 |
| 20260507001105 | 58 | 19 | 4.3 | 9.6 | 0.00 | 0.01 | 0.01 | 84 | 1014.8 |
| 20260506235031 | 58 | 355 | 5.2 | 11.3 | 0.00 | 0.01 | 0.01 | 84 | 1014.6 |
| 20260506231816 | 58 | 5 | 5.2 | 10.4 | 0.00 | 0.01 | 0.01 | 84 | 1014.5 |
| 20260506230751 | 58 | 0 | 4.3 | 10.4 | 0.00 | 0.01 | 0.01 | 84 | 1014.6 |
| 20260506225804 | 58 | 331 | 4.3 | 10.4 | 0.00 | 0.01 | 0.01 | 84 | 1014.4 |
| 20260506224825 | 58 | 329 | 4.3 | 9.6 | 0.00 | 0.01 | 0.01 | 84 | 1014.3 |
| 20260506223802 | 58 | 0 | 4.3 | 11.3 | 0.00 | 0.01 | 0.01 | 84 | 1014.5 |
| 20260506222740 | 58 | 337 | 4.3 | 11.3 | 0.00 | 0.01 | 0.01 | 84 | 1014.2 |
| 20260506221736 | 58 | 33 | 3.5 | 9.6 | 0.00 | 0.01 | 0.01 | 84 | 1013.9 |
| 20260506220717 | 58 | 343 | 3.5 | 7.8 | 0.00 | 0.01 | 0.01 | 84 | 1013.9 |
| 20260506215707 | 58 | 323 | 4.3 | 9.6 | 0.00 | 0.01 | 0.01 | 84 | 1014.0 |
| 20260506214637 | 58 | 333 | 4.3 | 10.4 | 0.00 | 0.01 | 0.01 | 84 | 1014.1 |
| 20260506213621 | 58 | 9 | 5.2 | 10.4 | 0.00 | 0.01 | 0.01 | 83 | 1014.2 |
| 20260506212644 | 58 | 355 | 4.3 | 10.4 | 0.00 | 0.01 | 0.01 | 83 | 1014.0 |
| 20260506205324 | 57 | 33 | 3.5 | 7.8 | 0.00 | 0.01 | 0.01 | 84 | 1014.2 |
| 20260506204301 | 57 | 295 | 4.3 | 8.7 | 0.00 | 0.01 | 0.01 | 84 | 1014.6 |
| 20260506203240 | 57 | 348 | 2.6 | 8.7 | 0.00 | 0.01 | 0.01 | 85 | 1014.6 |
| 20260506202244 | 57 | 331 | 2.6 | 8.7 | 0.00 | 0.01 | 0.01 | 84 | 1014.7 |
| 20260506201229 | 56 | 348 | 4.3 | 8.7 | 0.00 | 0.01 | 0.01 | 84 | 1014.5 |
| 20260506200215 | 57 | 344 | 3.5 | 7.8 | 0.00 | 0.01 | 0.01 | 84 | 1014.8 |
| 20260506195231 | 57 | 323 | 3.5 | 7.0 | 0.00 | 0.01 | 0.01 | 85 | 1014.4 |
| 20260506194228 | 56 | 5 | 3.5 | 9.6 | 0.00 | 0.01 | 0.01 | 85 | 1014.6 |
| 20260506193226 | 56 | 319 | 3.5 | 9.6 | 0.00 | 0.01 | 0.01 | 85 | 1014.5 |
| 20260506192212 | 56 | 321 | 2.6 | 7.8 | 0.00 | 0.01 | 0.01 | 85 | 1014.7 |
| 20260506191233 | 56 | 17 | 2.6 | 7.8 | 0.00 | 0.01 | 0.01 | 85 | 1014.6 |
| 20260506190209 | 56 | 16 | 4.3 | 10.4 | 0.00 | 0.01 | 0.01 | 84 | 1014.0 |
| 20260506185216 | 57 | 343 | 5.2 | 13.0 | 0.00 | 0.01 | 0.01 | 85 | 1013.7 |
| 20260506184144 | 57 | 355 | 7.0 | 14.8 | 0.00 | 0.01 | 0.01 | 86 | 1013.2 |
| 20260506183205 | 56 | 327 | 7.0 | 14.8 | 0.00 | 0.01 | 0.01 | 87 | 1013.0 |
| 20260506182139 | 55 | 11 | 4.3 | 9.6 | 0.00 | 0.01 | 0.01 | 87 | 1013.3 |
| 20260506181107 | 55 | 0 | 5.2 | 11.3 | 0.00 | 0.01 | 0.01 | 88 | 1013.6 |
| 20260506174927 | 54 | 9 | 3.5 | 8.7 | 0.00 | 0.01 | 0.01 | 89 | 1013.5 |
| 20260506173936 | 54 | 37 | 3.5 | 9.6 | 0.00 | 0.01 | 0.01 | 89 | 1013.6 |
| 20260506172953 | 54 | 336 | 4.3 | 12.2 | 0.00 | 0.01 | 0.01 | 89 | 1013.9 |
| 20260506171947 | 54 | 5 | 5.2 | 12.2 | 0.00 | 0.01 | 0.01 | 89 | 1014.2 |
| 20260506170957 | 54 | 355 | 6.1 | 11.3 | 0.00 | 0.01 | 0.01 | 90 | 1014.4 |
| 20260506170005 | 54 | 348 | 5.2 | 10.4 | 0.00 | 0.01 | 0.01 | 89 | 1015.2 |
| 20260506164952 | 54 | 20 | 3.5 | 7.8 | 0.00 | 0.01 | 0.01 | 89 | 1015.0 |
| 20260506163956 | 54 | 24 | 2.6 | 8.7 | 0.00 | 0.01 | 0.01 | 89 | 1014.8 |
| 20260506162938 | 54 | 17 | 4.3 | 11.3 | 0.00 | 0.01 | 0.01 | 89 | 1014.3 |
| 20260506161924 | 54 | 30 | 4.3 | 11.3 | 0.00 | 0.01 | 0.01 | 89 | 1013.6 |
| 20260506160936 | 53 | 34 | 0.0 | 0.0 | 0.00 | 0.00 | 0.00 | 88 | 1015.6 |
| 20260506160000 | 53 | 310 | 0.0 | 0.0 | 0.00 | 0.00 | 0.00 | 87 | 1016.1 |
| 20260506154957 | 53 | 302 | 1.7 | 11.3 | 0.00 | 0.00 | 0.00 | 86 | 1015.6 |
| 20260506154014 | 53 | 9 | 4.3 | 17.4 | 0.00 | 0.00 | 0.00 | 85 | 1014.5 |
| 20260506152950 | 54 | 309 | 7.8 | 17.4 | 0.00 | 0.00 | 0.00 | 85 | 1014.1 |
| 20260506151926 | 54 | 276 | 4.3 | 9.6 | 0.00 | 0.00 | 0.00 | 85 | 1014.8 |
| 20260506150929 | 53 | 0 | 6.1 | 11.3 | 0.00 | 0.00 | 0.00 | 85 | 1014.1 |
| 20260506145940 | 53 | 11 | 3.5 | 11.3 | 0.00 | 0.00 | 0.00 | 85 | 1014.6 |
| 20260506144906 | 53 | 344 | 4.3 | 11.3 | 0.00 | 0.00 | 0.00 | 85 | 1014.6 |
| 20260506143915 | 53 | 331 | 5.2 | 13.0 | 0.00 | 0.00 | 0.00 | 85 | 1014.5 |
| 20260506142940 | 53 | 350 | 5.2 | 13.0 | 0.00 | 0.00 | 0.00 | 86 | 1013.9 |
| 20260506135648 | 52 | 0 | 6.1 | 12.2 | 0.00 | 0.00 | 0.00 | 86 | 1013.5 |
| 20260506134650 | 52 | 332 | 4.3 | 12.2 | 0.00 | 0.00 | 0.00 | 87 | 1013.4 |
| 20260506133713 | 52 | 346 | 5.2 | 10.4 | 0.00 | 0.00 | 0.00 | 87 | 1013.4 |
| 20260506132733 | 52 | 22 | 7.0 | 12.2 | 0.00 | 0.00 | 0.00 | 87 | 1013.1 |
| 20260506130618 | 52 | 329 | 5.2 | 13.0 | 0.00 | 0.00 | 0.00 | 88 | 1013.2 |
| 20260506125619 | 52 | 5 | 6.1 | 12.2 | 0.00 | 0.00 | 0.00 | 88 | 1013.1 |
| 20260506124605 | 52 | 15 | 6.1 | 12.2 | 0.00 | 0.00 | 0.00 | 88 | 1012.7 |
| 20260506123537 | 52 | 337 | 5.2 | 12.2 | 0.00 | 0.00 | 0.00 | 88 | 1012.8 |
| 20260506122540 | 52 | 323 | 6.1 | 12.2 | 0.00 | 0.00 | 0.00 | 88 | 1012.7 |
| 20260506121602 | 52 | 318 | 5.2 | 12.2 | 0.00 | 0.00 | 0.00 | 87 | 1012.8 |
| 20260506120533 | 52 | 334 | 4.3 | 10.4 | 0.00 | 0.00 | 0.00 | 87 | 1012.5 |
| 20260506115503 | 52 | 342 | 6.1 | 13.0 | 0.00 | 0.00 | 0.00 | 87 | 1012.3 |
| 20260506114523 | 52 | 331 | 7.8 | 15.6 | 0.00 | 0.00 | 0.00 | 86 | 1012.0 |
| 20260506113518 | 52 | 340 | 7.8 | 15.6 | 0.00 | 0.00 | 0.00 | 86 | 1012.0 |
| 20260506112535 | 52 | 343 | 8.7 | 15.6 | 0.00 | 0.00 | 0.00 | 85 | 1011.8 |
| 20260506110424 | 53 | 5 | 6.1 | 11.3 | 0.00 | 0.00 | 0.00 | 84 | 1011.6 |
| 20260506105446 | 53 | 342 | 7.0 | 13.0 | 0.00 | 0.00 | 0.00 | 84 | 1011.4 |
| 20260506104425 | 53 | 315 | 6.1 | 13.0 | 0.00 | 0.00 | 0.00 | 83 | 1011.2 |
| 20260506103419 | 53 | 319 | 5.2 | 11.3 | 0.00 | 0.00 | 0.00 | 83 | 1011.0 |
| 20260506102422 | 53 | 16 | 5.2 | 12.2 | 0.00 | 0.00 | 0.00 | 83 | 1010.8 |
| 20260506101436 | 53 | 321 | 7.0 | 12.2 | 0.00 | 0.00 | 0.00 | 82 | 1010.7 |
| 20260506100456 | 53 | 319 | 3.5 | 8.7 | 0.00 | 0.00 | 0.00 | 82 | 1010.7 |
| 20260506094355 | 54 | 346 | 2.6 | 10.4 | 0.00 | 0.00 | 0.00 | 82 | 1010.4 |
| 20260506093355 | 54 | 355 | 3.5 | 10.4 | 0.00 | 0.00 | 0.00 | 81 | 1010.4 |
| 20260506092402 | 54 | 13 | 4.3 | 13.9 | 0.00 | 0.00 | 0.00 | 81 | 1010.3 |
| 20260506091330 | 54 | 342 | 3.5 | 13.9 | 0.00 | 0.00 | 0.00 | 81 | 1010.1 |
| 20260506090303 | 54 | 327 | 4.3 | 11.3 | 0.00 | 0.00 | 0.00 | 81 | 1009.8 |
| 20260506085230 | 54 | 355 | 5.2 | 11.3 | 0.00 | 0.00 | 0.00 | 80 | 1009.8 |
| 20260506084236 | 54 | 324 | 2.6 | 12.2 | 0.00 | 0.00 | 0.00 | 80 | 1009.7 |
| 20260506083215 | 54 | 9 | 7.0 | 12.2 | 0.00 | 0.00 | 0.00 | 79 | 1009.9 |
| 20260506082221 | 55 | 355 | 2.6 | 8.7 | 0.00 | 0.00 | 0.00 | 79 | 1009.8 |
| 20260506081211 | 55 | 342 | 2.6 | 8.7 | 0.00 | 0.00 | 0.00 | 79 | 1009.4 |
| 20260506080139 | 55 | 342 | 2.6 | 7.0 | 0.00 | 0.00 | 0.00 | 79 | 1009.2 |
| 20260506073101 | 55 | 23 | 2.6 | 8.7 | 0.00 | 0.00 | 0.00 | 79 | 1009.3 |
| 20260506070929 | 55 | 336 | 4.3 | 13.0 | 0.00 | 0.00 | 0.00 | 79 | 1009.4 |
| 20260506061708 | 56 | 334 | 7.0 | 13.9 | 0.00 | 0.00 | 0.00 | 80 | 1009.4 |
| 20260506060721 | 56 | 331 | 7.0 | 13.0 | 0.00 | 0.00 | 0.00 | 80 | 1009.3 |
| 20260506050539 | 57 | 11 | 7.0 | 12.2 | 0.00 | 0.00 | 0.00 | 81 | 1009.1 |
| 20260506044331 | 58 | 342 | 6.1 | 12.2 | 0.00 | 0.00 | 0.00 | 81 | 1009.1 |
| 20260506043323 | 59 | 350 | 6.1 | 12.2 | 0.00 | 0.00 | 0.00 | 81 | 1009.0 |
| 20260506042314 | 59 | 5 | 5.2 | 14.8 | 0.00 | 0.00 | 0.00 | 81 | 1008.9 |
| 20260506041334 | 59 | 9 | 7.8 | 14.8 | 0.00 | 0.00 | 0.00 | 81 | 1008.7 |
| 20260506040339 | 59 | 0 | 7.0 | 13.0 | 0.00 | 0.00 | 0.00 | 82 | 1008.6 |
| 20260506035324 | 60 | 326 | 7.8 | 13.0 | 0.00 | 0.00 | 0.00 | 82 | 1008.8 |
| 20260506034314 | 60 | 343 | 7.0 | 13.0 | 0.00 | 0.00 | 0.00 | 82 | 1008.5 |
| 20260506033323 | 60 | 325 | 7.8 | 14.8 | 0.00 | 0.00 | 0.00 | 82 | 1008.3 |
| 20260506032329 | 61 | 348 | 6.1 | 14.8 | 0.00 | 0.00 | 0.00 | 82 | 1008.2 |
| 20260506031304 | 62 | 340 | 5.2 | 12.2 | 0.00 | 0.00 | 0.00 | 81 | 1008.0 |
| 20260506030249 | 63 | 329 | 7.0 | 13.0 | 0.00 | 0.00 | 0.00 | 80 | 1007.7 |
| 20260506025312 | 64 | 339 | 5.2 | 13.0 | 0.00 | 0.00 | 0.00 | 80 | 1007.4 |